Regional Weather Roundup
Issued by NWS Northern Indiana

Home | Current Version | Previous Version | Graphics & Text | Print | Product List | Glossary On
Versions: 1 2 3 4 5 6 7 8 9 10 11 12 13 14 15 16 17 18 19 20 21 22 23 24 25 26 27 28 29 30 31 32 33 34 35 36 37 38 39 40 41 42 43 44 45 46 47 48 49 50
000
ASUS43 KIWX 312300
RWRIWX

KIWX WEATHER ROUNDUP
NATIONAL WEATHER SERVICE NORTHERN INDIANA
600 PM EST SAT JAN 31 2015

NOTE: "FAIR" INDICATES FEW OR NO CLOUDS BELOW 12,000 FEET WITH NO
SIGNIFICANT WEATHER AND/OR OBSTRUCTIONS TO VISIBILITY.

* THESE STATIONS ARE NOT UNDER NWS QUALITY CONTROL. THEY ALSO MAY NOT
  REPORT WEATHER SUCH AS PRECIPITATION OR FOG.

INZ001>027-010000-
NORTHERN INDIANA

CITY           SKY/WX    TMP DP  RH WIND       PRES   REMARKS
GARY*          CLOUDY    39  25  56 SW7       30.18R
SOUTH BEND     CLOUDY    35  26  69 SW5       30.18F WCI  31
ELKHART*       CLOUDY    36  25  64 SW5       30.18S
GOSHEN         CLOUDY    34  27  75 S5        30.18S WCI  30
ANGOLA*        MOCLDY    34  25  69 SW7       30.16F WCI  28
FORT WAYNE     CLOUDY    35  27  72 SW10      30.20S WCI  27
PERU/GRISSOM   CLOUDY    34  28  79 SW8       30.20R WCI  27

$$
INZ028>050-010000-
CENTRAL INDIANA

CITY           SKY/WX    TMP DP  RH WIND       PRES   REMARKS
LAFAYETTE      CLOUDY    36  27  69 SW7       30.22R
KOKOMO*        CLOUDY    36  27  69 SW9       30.21R
MUNCIE*        CLOUDY    36  24  62 SW9       30.20F
INDIANAPOLIS   CLOUDY    35  23  61 SW9       30.23S WCI  28

$$
MIZ043>046-050>051-056>058-064>065-071>073-077>080-010000-
SOUTHWEST LOWER MICHIGAN

CITY           SKY/WX    TMP DP  RH WIND       PRES   REMARKS
BATTLE CREEK   MOCLDY    32  21  64 W6        30.16S WCI  26
BENTON HARBOR  CLOUDY    33  26  75 CALM      30.18S
COLDWATER*     MOCLDY    32  24  73 SW5       30.16S WCI  27
HILLSDALE*     MOCLDY    33  21  61 CALM      30.15S
HOLLAND        CLOUDY    33  24  69 W5        30.18S WCI  29
GRAND RAPIDS   CLOUDY    32  25  75 W7        30.17R WCI  26
KALAMAZOO      MOCLDY    33  22  63 W5        30.17R WCI  29
STURGIS*       CLOUDY    34  27  75 CALM      30.16S
THREE RIVERS*  FAIR      35  24  64 W5        30.17R WCI  31

$$
OHZ001>008-015>018-024>025-010000-
NORTHWEST OHIO

CITY           SKY/WX    TMP DP  RH WIND       PRES   REMARKS
DEFIANCE       CLOUDY    34  25  69 SW6       30.20S WCI  29
FINDLAY        MOCLDY    31  24  75 S9        30.21S WCI  23
TOLEDO EXPRESS MOCLDY    32  23  69 S6        30.20S WCI  26
TOLEDO METCALF MOCLDY    32  24  72 S7        30.22S WCI  26
LIMA           CLOUDY    35  24  64 SW9       30.20S WCI  28

$$
AND FOR LAKE MICHIGAN COASTAL AND OPEN LAKE BUOY OBSERVATIONS

STATION/POSITION TEMP    WIND        PRES    VSBY  WAVE
                 AIR SEA DIR/SP/G                  HT/PER
                 (F)     (DEG/KT/KT) (MB)    (MI)  (FT/S)
CALUMET HARBOR    37     250/  2/  5   N/A
MICHIGAN CITY     35     200/  2/  3   N/A
SAINT JOSEPH      33     180/  1/  5 1021.7F

$$
&&


USA.gov is the U.S. government's official web portal to all federal, state and local government web resources and services.